Regional Weather Roundup
Issued by NWS

Home | Current Version | Previous Version | Graphics & Text | Print | Product List | Glossary On
Versions: 1 2 3 4 5 6 7 8 9 10 11 12 13 14 15 16 17 18 19 20 21 22 23 24 25 26 27 28 29 30 31 32 33 34 35 36 37 38 39 40 41 42 43 44 45 46 47 48 49 50
000
ASUS43 KIND 060509
RWRIN

WEATHER ROUNDUP FOR INDIANA
NATIONAL WEATHER SERVICE INDIANAPOLIS IN
100 AM EDT FRI MAY 06 2016

NOTE: "FAIR" INDICATES FEW OR NO CLOUDS BELOW 12,000 FEET WITH NO
SIGNIFICANT WEATHER AND/OR OBSTRUCTIONS TO VISIBILITY.

* - STATION DOES NOT REPORT WEATHER SUCH AS PRECIPITATION OR FOG.

+ - STATION NOT QUALITY CONTROLLED BY THE NATIONAL WEATHER SERVICE.
    USE DATA WITH CAUTION...ESPECIALLY DEWPOINT AND RELATIVE
    HUMIDITY OBSERVATIONS.

INZ001>003-010>013-019-020-060600-
NORTHWEST INDIANA

CITY           SKY/WX    TMP DP  RH WIND       PRES   REMARKS
GARY /AIRPORT/   N/A     42  42 100 CALM      30.00S FOG
KNOX *+        PTCLDY    39  37  93 W3        29.98S
LA PORTE +     CLEAR     43  41  93 CALM      29.99S
MICHIGAN CITY+ CLEAR     37  37 100 CALM      29.99S FOG
MONTICELLO +   CLEAR     45  39  79 W3        29.97S
RENSSELAER +   CLEAR     46  41  81 NW6       29.99S
VALPARAISO     CLEAR     43  38  82 CALM      29.99S

$$

LMZ046-743>745-060600-
SOUTHERN LAKE MICHIGAN

STATION/POSITION TIME  TEMP    WIND        PRES    WAVE
                       AIR SEA DIR/SP/G            HT
                 (UTC) (F)     (DEG/KT/KT) (MB)    (FT)
BURNS HARBOR     0500   46     310/  2/  4 1016.3S
MICHIGAN CITY    0400   45     270/  4/  5   N/A

$$

INZ004-005-014>016-021>024-060600-
NORTH CENTRAL INDIANA

CITY           SKY/WX    TMP DP  RH WIND       PRES   REMARKS
GOSHEN         CLEAR     44  38  79 NW5       29.96S
LOGANSPORT +   CLEAR     45  41  87 N5        29.98S
PERU/GRISSOM   CLEAR     48  42  80 NW6       29.95S
ROCHESTER +    CLEAR     46  43  87 NW3       29.97S
SOUTH BEND     CLEAR     40  37  89 NW5       29.98S
WARSAW +       CLEAR     45  37  76 CALM      29.96S

$$

INZ006>009-017-018-025>027-060600-
NORTHEAST INDIANA

CITY           SKY/WX    TMP DP  RH WIND       PRES   REMARKS
ANGOLA *+        N/A     48  43  81 W3        29.94S
AUBURN +       CLEAR     48  39  71 NW6       29.95S
FORT WAYNE     PTCLDY    49  41  74 NW6       29.95S
HUNTINGTON +   CLEAR     47  41  78 N3        29.95S

$$

INZ028-029-035-036-043>045-051>053-060600-
WEST CENTRAL INDIANA

CITY           SKY/WX    TMP DP  RH WIND       PRES   REMARKS
CRAWFORDSVL +  PTCLDY    45  43  92 CALM      29.98S
GREENCASTLE +  PTCLDY    50  43  76 N6        29.98S
LAFAYETTE      CLEAR     43  41  93 CALM      29.98S
TERRE HAUTE    CLEAR     49  42  77 CALM      29.99R

$$

INZ030>032-037>040-046>048-054>057-064-065-060600-
CENTRAL INDIANA

CITY           SKY/WX    TMP DP  RH WIND       PRES   REMARKS
CP ATTERBURY + CLEAR     48  43  81 NW5       29.97R
FISHERS *+     CLEAR     48  45  87 CALM      29.97S
FRANKFORT +      N/A     47  35  63 CALM      29.99F
GREENWOOD *+   CLEAR     50  43  76 N5        29.97R
INDIANAPOLIS   PTCLDY    50  41  71 N7        29.95S
-EAGLE CREEK   CLEAR     52  43  71 N7        29.96S
KOKOMO *+      CLEAR     46  39  76 NW3       29.96S
MARION +       CLEAR     49  41  75 N3        29.96S
SHELBYVILLE    CLEAR     52  44  74 N9        29.95R
ZIONSVILLE +   PTCLDY    47  41  80 N5        29.97S

$$

INZ033-034-041-042-049-050-058-059-060600-
EAST CENTRAL INDIANA

CITY           SKY/WX    TMP DP  RH WIND       PRES   REMARKS
MUNCIE         CLEAR     50  42  74 N7        29.95R

$$

INZ060-061-067>069-081>083-085>088-060600-
SOUTHWEST INDIANA

CITY           SKY/WX    TMP DP  RH WIND       PRES   REMARKS
EVANSVILLE     CLEAR     46  44  93 SW3       29.99S
HUNTINGBURG *+ CLEAR     48  43  81 NW3       29.98S
WASHINGTON +   CLEAR     49  46  89 NW5       29.98S

$$

INZ062-063-066-070>080-084-089>092-060600-
SOUTH CENTRAL AND SOUTHEAST INDIANA

CITY           SKY/WX    TMP DP  RH WIND       PRES   REMARKS
BEDFORD +      CLEAR     52  50  93 CALM      29.96S
BLOOMINGTON    CLEAR     50  42  74 CALM      29.97S
MADISON *+     CLEAR     50  45  81 CALM      29.95R
NORTH VERNON + CLEAR     50  50 100 CALM      29.95R
SEYMOUR +      PTCLDY    50  46  87 CALM      29.95R

$$





USA.gov is the U.S. government's official web portal to all federal, state and local government web resources and services.